Location: *
(42.3442°N, 9.2072°E)
Time: 09:59:26
(UTC+00:00)

Meteor 2-10 Rocket - Pass Details

Date: 12 August 2020
Orbit: 734 x 884 km, 81.2° (Epoch: 22 September)

Event Time Altitude Azimuth Distance (km) Brightness Sun altitude
Rises 03:43:35 0° 172° (S) 3,197 6.5 -8.2°
Reaches altitude 10° 03:45:56 10° 167° (SSE) 2,294 5.8 -7.8°
Maximum altitude 03:50:53 48° 94° (E) 1,019 4.7 -7.0°
Drops below altitude 10° 03:56:03 10° 21° (NNE) 2,403 6.8 -6.1°
Sets 03:58:34 0° 16° (NNE) 3,363 7.5 -5.7°
